Regional Weather Roundup
Issued by NWS

Home | Current Version | Previous Version | Text Only | Print | Product List | Glossary Off
Versions: 1 2 3 4 5 6 7 8 9 10 11 12 13 14 15 16 17 18 19 20 21 22 23 24 25 26 27 28 29 30 31 32 33 34 35 36 37 38 39 40 41 42 43 44 45 46 47 48 49 50

000
ASUS43 KLOT 130903
RWRIL

ILLINOIS REGIONAL WEATHER ROUNDUP
NATIONAL WEATHER SERVICE CHICAGO/ROMEOVILLE IL
300 AM CST WED DEC 13 2017

NOTE: "FAIR" INDICATES FEW OR NO CLOUDS BELOW 12,000 FEET WITH NO
SIGNIFICANT WEATHER AND/OR OBSTRUCTIONS TO VISIBILITY.

* THESE STATIONS ARE NOT UNDER NWS QUALITY CONTROL. THEY ALSO MAY NOT
  REPORT WEATHER SUCH AS PRECIPITATION OR FOG.

ILZ001-002-007-009-015-016-024-131000-
NORTHWEST ILLINOIS

CITY           SKY/WX    TMP DP  RH WIND       PRES   REMARKS
MOLINE         CLOUDY    30  16  56 S8        29.73F WCI  22
STERLING*      CLOUDY    25  15  66 SE3       29.76F
SAVANNA*       CLOUDY    24  15  69 S8        29.73F WCI  14
$$

ILZ003-004-008-010-011-017-018-131000-
NORTH CENTRAL ILLINOIS

CITY           SKY/WX    TMP DP  RH WIND       PRES   REMARKS
ROCKFORD       CLOUDY    24  14  65 S10       29.76F WCI  14
FREEPORT*      CLOUDY    23  14  67 S14       29.74F WCI  11
ROCHELLE*      CLOUDY    24  15  70 S10       29.77F WCI  13
DE KALB*       CLOUDY    22  15  74 S12       29.78F WCI  11
PERU*          CLOUDY    24  10  56 S9        29.81F WCI  14
$$

ILZ005-006-012>014-019>023-131000-
NORTHEAST ILLINOIS

CITY           SKY/WX    TMP DP  RH WIND       PRES   REMARKS
CHICAGO-OHARE  CLOUDY    22  11  62 S9        29.80F WCI  12
CHICAGO-MIDWAY CLOUDY    23  11  60 S9        29.83F WCI  13
AURORA         CLOUDY    23  14  68 SE8       29.80F WCI  14
LANSING*       CLOUDY    22  13  68 S9        29.86F WCI  11
JOLIET*        CLOUDY    26  13  59 S6        29.84F WCI  19
WAUKEGAN       CLOUDY    21  11  65 S8        29.78F WCI  11
DUPAGE AIRPORT CLOUDY    22  14  71 S9        29.80F WCI  12
KANKAKEE*      CLOUDY    24  10  56 S6        29.87F WCI  16
WHEELING       CLOUDY    23  12  62 S9        29.82F WCI  13
MORRIS*        CLOUDY    25  11  56 S9        29.82F WCI  15
ROMEOVILLE*    CLOUDY    23  13  66 S8        29.82F WCI  14
NORTHERLY ISL    N/A     23   9  55 S9          N/A  WCI  13
$$

LMZ740>746-131000-
SOUTHERN LAKE MICHIGAN

STATION/POSITION SKY/WX   TEMP    WIND        PRES    VSBY  WAVE
                          AIR SEA DIR/SP/G                  HT/PER
                          (F)     (DEG/KT/KT) (MB)    (MI)  (FT/S)
HARRISON CRIB              24     200/ 12/ 14   N/A
BURNHAM HARBOR             23     190/  7/ 11   N/A
CALUMET HARBOR             22     190/  7/ 13 1010.4F
BURNS HARBOR               22     180/  8/ 15 1011.9F
MICHIGAN CITY              20     190/ 10/ 11   N/A
$$

ILZ025>027-034>036-040-047-049-050-058-095>099-131000-
WEST-CENTRAL ILLINOIS

CITY           SKY/WX    TMP DP  RH WIND       PRES   REMARKS
QUINCY         CLEAR     26  16  65 S12       29.81F WCI  16
GALESBURG*     CLEAR     25  17  69 S8        29.78F WCI  17
MACOMB*        CLOUDY    28  16  59 S10       29.81F WCI  19
JACKSONVILLE*  CLOUDY    28  10  47 S9        29.86F WCI  19
PITTSFIELD*    PTCLDY    29  13  52 S7        29.85F WCI  22
$$

ILZ028>032-037-038-041>044-048-051>054-059>061-131000-
CENTRAL ILLINOIS

CITY           SKY/WX    TMP DP  RH WIND       PRES   REMARKS
PONTIAC        CLOUDY    27   9  46 S10       29.85F WCI  17
BLOOMINGTON    CLOUDY    25   8  48 SW14      29.85F WCI  13
DECATUR        CLOUDY    23   9  55 SW12      29.89F WCI  12
PEORIA         CLOUDY    25   8  48 S12       29.82F WCI  14
LACON*         CLOUDY    26  11  51 S7        29.81F WCI  19
LINCOLN*       CLOUDY    24  11  59 S5        29.86F WCI  18
SPRINGFIELD    CLOUDY    28  10  46 S10       29.88F WCI  19
TAYLORVILLE    CLOUDY    23   9  53 S8        29.90F WCI  14
$$

ILZ033-039-045-046-055>057-062-063-131000-
EAST-CENTRAL ILLINOIS

CITY           SKY/WX    TMP DP  RH WIND       PRES   REMARKS
CHAMPAIGN      CLOUDY    23  10  57 S10       29.88F WCI  12
DANVILLE*      CLOUDY    22  10  61 S7        29.88F WCI  13
RANTOUL*       CLOUDY    25  11  54 S5        29.88F WCI  20
MATTOON        CLOUDY    22  10  60 S10       29.90F WCI  11
PARIS*         CLOUDY    23  10  59 S7        29.92F WCI  14
$$

ILZ079-100>102-131000-
SOUTHWEST ILLINOIS

CITY           SKY/WX    TMP DP  RH WIND       PRES   REMARKS
ALTON          CLOUDY    24  14  66 CALM      29.93F
BELLEVILLE     CLOUDY    22  10  58 SW6       29.94F WCI  15
CAHOKIA*       CLOUDY    24   8  50 CALM      29.95F
SPARTA*        CLOUDY    27  11  51 S7        29.98F WCI  20
$$

ILZ064>066-069>071-074>076-080>082-084>086-088>090-092>094-131000-
SOUTH-CENTRAL ILLINOIS

CITY           SKY/WX    TMP DP  RH WIND       PRES   REMARKS
CARBONDALE     CLOUDY    22  12  65 S6        30.01F WCI  14
CAIRO*         CLOUDY    27  13  56 S8        30.05F WCI  18
EFFINGHAM*     CLOUDY    23  11  61 S5        29.96F WCI  16
MARION         CLOUDY    24  11  59 S6        30.02S WCI  17
MT. VERNON     CLOUDY    21  13  71 SW5       29.98F WCI  15
CENTRALIA*     CLOUDY    25  14  63 CALM      29.95F
SALEM*         CLOUDY    25  10  53 S6        29.96F WCI  18
METROPOLIS*    CLOUDY    26  13  59 S6        30.05F WCI  19
$$

ILZ067-068-072-073-078-083-087-091-131000-
SOUTHEAST ILLINOIS

CITY           SKY/WX    TMP DP  RH WIND       PRES   REMARKS
LAWRENCEVILLE  CLOUDY    20  11  68 SW6       29.99F WCI  12
FLORA*         CLOUDY    23  13  64 S6        29.97F WCI  16
FAIRFIELD*     CLOUDY    22  12  64 S3        29.98F
HARRISBURG*    CLOUDY    19  15  86 CALM      30.02F
ROBINSON*      CLOUDY    19  11  69 S8        29.98F WCI   9
CARMI*         CLOUDY    22  14  72 S6        30.00F WCI  14
$$

ABBREVIATIONS USED IN REMARKS
   TC - TEMPERATURE IN CELSIUS
  WCI - WIND CHILL INDEX
   HX - HEAT INDEX
  VSB - VISIBILITY
$$





USA.gov is the U.S. government's official web portal to all federal, state and local government web resources and services.